Content
SEND FEEDBACK

Daily
Averages
Monthly
Summary
United States of America

SOUTH LAKE TAHOE, CALIFORNIA


Home > North America > United States > California
Elevation: 6263 feet     Latitude: 38 53N     Longitude: 119 59W

WEATHER
 
SELECT A DAY
Number of Records: 176,518;   Date Range: 1/1/95 - 9/30/14
 
SHARE

PRINT THIS DATA

[ ← Previous Day ]
WEATHER ALMANAC - APRIL 8, 2013
[ Next Day → ]
[ °C ]   °F
Weather ElementAverageHighLow
Temperature31.8 °F39 °F (3:53 pm)28.4 °F (3:50 am)
Dewpoint23.5 °F28.4 °F (12:29 am)16 °F (4:53 pm)
Humidity72.9 %93 % (1:42 am)39 % (4:53 pm)
Barometer29.72 in30.00 in (10:53 pm)29.56 in (2:53 am)
Wind Speed6 mph17.3 mph (11:53 pm)
Wind Gust27.6 mph (8:53 am)
Weather ElementAverage
Visibility5 mi
Wind DirectionNE (42.6 °)

Weather ElementTotal
Precipitation0.37 in
Heating Degree Days31.3 (Base 65)
Averaged from 66 records on April 8, 2013
WEATHER CONDITIONS BREAKOUT
WIND DIRECTION BREAKOUT
WEATHER BY HOUR - APRIL 8, 2013
[ °C ]   °F
Local TimeTemperatureDewpointHumidityBarometerVisibilityWind DirectionWind SpeedGust SpeedPrecipitationEventsConditions
12:29 AM33.8 °F28.4 °F81 %29.65 in1.0 miSouth (170°)16.1 mph23.0 mph0.02 inSnowLight Snow
12:33 AM33.8 °F26.6 °F75 %29.65 in3.0 miSouth (180°)10.4 mph23.0 mph0.02 inSnowLight Snow
12:41 AM33.8 °F26.6 °F75 %29.65 in9.0 miNE (50°)11.5 mph0.02 inOvercast
12:48 AM33.8 °F26.6 °F75 %29.65 in10.0 miNE (40°)11.5 mph0.02 inOvercast
12:53 AM33.1 °F27.0 °F78 %29.58 in3.0 miVariable6.9 mph0.02 inSnowLight Snow
12:59 AM33.8 °F26.6 °F75 %29.66 in1.8 miSSE (150°)6.9 mph0.00 inSnowLight Snow
1:09 AM33.8 °F26.6 °F75 %29.67 in0.8 miSouth (180°)16.1 mph23.0 mph0.00 inSnowLight Snow
1:14 AM32.0 °F26.6 °F80 %29.66 in0.5 miSouth (170°)16.1 mph24.2 mph0.00 inSnowSnow
1:42 AM30.2 °F28.4 °F93 %29.66 in0.2 miCalm0.03 inFog-SnowHeavy Snow
1:53 AM30.9 °F28.0 °F89 %29.58 in0.2 miSouth (180°)5.8 mph0.06 inFog-SnowHeavy Snow
2:19 AM30.2 °F28.4 °F93 %29.64 in1.0 miSouth (190°)5.8 mph0.02 inSnowLight Snow
2:23 AM30.2 °F26.6 °F86 %29.64 in2.0 miCalm0.02 inSnowLight Snow
2:26 AM30.2 °F28.4 °F93 %29.64 in3.0 miCalm0.02 inSnowLight Snow
2:35 AM30.2 °F26.6 °F86 %29.64 in7.0 miCalm0.02 inSnowLight Snow
2:53 AM30.9 °F26.1 °F82 %29.56 in3.0 miSouth (190°)3.5 mph0.02 inSnowLight Snow
3:03 AM30.2 °F26.6 °F86 %29.63 in2.5 miCalm0.00 inSnowLight Snow
3:12 AM30.2 °F26.6 °F86 %29.63 in4.0 miCalm0.00 inSnowLight Snow
3:28 AM30.2 °F26.6 °F86 %29.63 in2.5 miCalm0.01 inSnowLight Snow
3:39 AM30.2 °F26.6 °F86 %29.63 in1.5 miSSE (160°)3.5 mph0.01 inSnowLight Snow
3:50 AM28.4 °F24.8 °F86 %29.63 in3.0 miSouth (170°)3.5 mph0.01 inSnowLight Snow
3:51 AM28.9 °F25.0 °F85 %29.57 in3.0 miSouth (180°)3.5 mph0.01 inSnowLight Snow
3:55 AM28.4 °F24.8 °F86 %29.63 in5.0 miSSW (200°)3.5 mph0.00 inSnowLight Snow
4:53 AM30.0 °F26.1 °F85 %29.58 in10.0 miCalm0.00 inOvercast
5:04 AM30.2 °F26.6 °F86 %29.64 in6.0 miCalm0.00 inSnowLight Snow
5:10 AM30.2 °F26.6 °F86 %29.64 in2.5 miCalm0.00 inSnowLight Snow
5:15 AM30.2 °F26.6 °F86 %29.64 in3.0 miCalm0.00 inSnowLight Snow
5:20 AM30.2 °F26.6 °F86 %29.64 in6.0 miCalm0.00 inSnowLight Snow
5:29 AM30.2 °F26.6 °F86 %29.64 in6.0 miCalm0.00 inSnowLight Snow
5:42 AM30.2 °F26.6 °F86 %29.64 in2.5 miCalm0.00 inSnowLight Snow
5:49 AM30.2 °F26.6 °F86 %29.65 in1.5 miNNE (30°)9.2 mph0.00 inSnowLight Snow
5:53 AM30.9 °F26.1 °F82 %29.59 in1.0 miCalm0.01 inSnowLight Snow
6:05 AM30.2 °F26.6 °F86 %29.65 in4.0 miNNE (30°)4.6 mph0.00 inSnowLight Snow
6:12 AM30.2 °F24.8 °F80 %29.65 in9.0 miVariable3.5 mph0.00 inOvercast
6:43 AM32.0 °F24.8 °F75 %29.67 in2.5 miCalm0.00 inSnowLight Snow
6:53 AM30.9 °F25.0 °F79 %29.63 in1.8 miNNE (30°)3.5 mph0.00 inSnowLight Snow
6:58 AM32.0 °F24.8 °F75 %29.68 in3.0 miNorth (10°)3.5 mph0.00 inSnowLight Snow
7:06 AM32.0 °F24.8 °F75 %29.68 in7.0 miCalm0.00 inSnowLight Snow
7:25 AM32.0 °F24.8 °F75 %29.70 in10.0 miVariable5.8 mph0.00 inOvercast
7:53 AM30.9 °F24.1 °F76 %29.67 in2.5 miNNE (20°)9.2 mph0.00 inSnowLight Snow
8:12 AM30.2 °F24.8 °F80 %29.72 in5.0 miVariable5.8 mph0.00 inSnowLight Snow
8:30 AM30.2 °F21.2 °F69 %29.74 in2.5 miNorth (10°)9.2 mph18.4 mph0.00 inSnowLight Snow
8:39 AM30.2 °F21.2 °F69 %29.74 in6.0 miNorth (10°)8.1 mph23.0 mph0.01 inSnowLight Snow
8:47 AM30.2 °F19.4 °F64 %29.75 in2.5 miNNE (20°)12.7 mph24.2 mph0.01 inSnowLight Snow
8:53 AM30.9 °F19.9 °F64 %29.72 in1.8 miNNE (20°)12.7 mph27.6 mph0.01 inSnowLight Snow
8:57 AM30.2 °F19.4 °F64 %29.75 in3.0 miNorth (10°)12.7 mph27.6 mph0.00 inSnowLight Snow
9:08 AM30.2 °F19.4 °F64 %29.76 in7.0 miNorth (10°)8.1 mph20.7 mph0.00 inOvercast
9:43 AM30.2 °F19.4 °F64 %29.79 in2.5 miNNE (20°)10.4 mph18.4 mph0.00 inSnowLight Snow
9:49 AM30.2 °F21.2 °F69 %29.80 in1.8 miNNE (20°)9.2 mph18.4 mph0.00 inSnowLight Snow
9:53 AM30.0 °F21.0 °F69 %29.78 in1.5 miVariable6.9 mph18.4 mph0.00 inSnowLight Snow
10:16 AM30.2 °F21.2 °F69 %29.82 in2.5 miVariable4.6 mph0.00 inSnowLight Snow
10:23 AM30.2 °F21.2 °F69 %29.82 in4.0 miVariable5.8 mph0.00 inSnowLight Snow
10:45 AM32.0 °F21.2 °F64 %29.83 in6.0 miVariable6.9 mph0.00 inSnowLight Snow
10:53 AM32.0 °F19.9 °F61 %29.80 in9.0 miVariable5.8 mph18.4 mph0.00 inSnowLight Snow
11:53 AM34.0 °F19.9 °F56 %29.83 in10.0 miNNE (20°)9.2 mphOvercast
12:53 PM34.0 °F21.0 °F59 %29.84 in10.0 miEast (100°)8.1 mphOvercast
1:53 PM35.1 °F19.0 °F52 %29.87 in9.0 miCalm0.00 inOvercast
2:53 PM36.0 °F19.9 °F52 %29.86 in8.0 miVariable3.5 mph0.00 inSnowLight Snow
3:53 PM39.0 °F18.0 °F43 %29.86 in10.0 miNNE (30°)10.4 mph0.00 inOvercast
4:53 PM39.0 °F16.0 °F39 %29.87 in10.0 miNNE (20°)8.1 mphOvercast
5:53 PM37.9 °F18.0 °F45 %29.88 in10.0 miNorth (10°)6.9 mphPartly Cloudy
6:53 PM37.0 °F19.0 °F48 %29.90 in10.0 miNorth (10°)6.9 mphMostly Cloudy
7:53 PM35.1 °F17.1 °F48 %29.93 in10.0 miNE (50°)9.2 mphOvercast
8:53 PM34.0 °F18.0 °F52 %29.96 in10.0 miNNE (30°)12.7 mph18.4 mphMostly Cloudy
9:53 PM33.1 °F17.1 °F52 %29.99 in10.0 miNNE (20°)12.7 mph18.4 mphScattered Clouds
10:53 PM34.0 °F17.1 °F50 %30.00 in10.0 miNNE (30°)10.4 mph17.3 mphMostly Cloudy
11:53 PM33.1 °F16.0 °F50 %30.00 in10.0 miNE (40°)17.3 mph20.7 mphScattered Clouds
Hourly data recorded from KTVL, located miles away from South Lake Tahoe, California







STORIES FROM OUR PARTNERS